sat.trackr.live / text

‹ back to catalog

STARLINK-5852

NORAD 55933 · 2023-037V

PAYLOAD ACTIVE UNKNOWN

§ Identity

Operator
Country
US
Launch date
2023-03-17
Launch site
AFWTR
Launch vehicle
Mass (kg)
RCS (m²)

Purposes: comms

External: N2YO · Heavens-Above · Gunter

§ Orbital elements

Epoch: 2026-09-20T22:00:03.000096Z

Period
95.68 min
Inclination
70.0006°
Eccentricity
0.0005198
Mean motion
15.05006262 rev/d
Perigee alt
547.9 km
Apogee alt
555.1 km
Semi-major
6,929.6 km
B*
1.6018e-3
RAAN
152.2317°
Arg perigee
271.9087°
Mean anomaly
75.3848°
Rev number
571

§ Raw data

STARLINK-58521 55933U 23037V   26263.91670139  .00022759  00000+0  16018-2 0  99972 55933  70.0006 152.2317 0005198 271.9087  75.3848 15.05006262  5713

JSON: /api/v1/satellites/55933 · /tle

For live sub-satellite position, see the globe view (requires WebGL).

§ Visibility from observer

Set your observer location to see the next 7 days of passes ≥ 10°. The values pass through the URL so the page stays shareable.

No JS? Fill the form by hand. The geolocation button needs JavaScript.